Location: *
(51.8167°N, 12.5000°E)
Time: 15:02:04
(UTC+00:00)

SPOT 1/Viking Rocket - Pass Details

Date: 16 September 2019
Orbit: 777 x 795 km, 98.5° (Epoch: 20 October)

Event Time Altitude Azimuth Distance (km) Brightness Sun altitude
Exits shadow 19:29:13 31° 88° (E) 1,360 4.3 -19.2°
Maximum altitude 19:30:19 34° 62° (ENE) 1,276 4.4 -19.4°
Drops below altitude 10° 19:34:57 10° 359° (N) 2,354 6.4 -20.0°
Sets 19:37:26 0° 351° (N) 3,284 7.4 -20.3°
